Regional Weather Roundup
Issued by NWS

Home | Current Version | Previous Version | Graphics & Text | Print | Product List | Glossary On
Versions: 1 2 3 4 5 6 7 8 9 10 11 12 13 14 15 16 17 18 19 20 21 22 23 24 25 26 27 28 29 30 31 32 33 34 35 36 37 38 39 40 41 42 43 44 45 46 47 48 49 50
000
ASUS45 KCYS 060410
RWRWY

WYOMING REGIONAL WEATHER ROUNDUP
NATIONAL WEATHER SERVICE CHEYENNE WY
1000 PM MDT TUE MAY 05 2015

NOTE:  "FAIR" INDICATES FEW OR NO CLOUDS BELOW 12,000 FEET
WITH NO SIGNIFICANT WEATHER AND/OR OBSTRUCTIONS TO VISIBILITY.

WYZ001-060500-
YELLOWSTONE NATIONAL PARK

CITY           SKY/WX    TMP DP  RH WIND       PRES   REMARKS
LK YELLOWSTONE   N/A     38  33  82 CALM      29.94R
W YELLOWSTONE  NOT AVBL

$$
WYZ002>013-054>058-071-098>099-060500-
NORTHERN WYOMING

CITY           SKY/WX    TMP DP  RH WIND       PRES   REMARKS
JACKSON        CLOUDY    46  43  87 SW8       29.88R
CODY           CLOUDY    55  43  62 NW14      29.79R
GREYBULL       CLOUDY    68  41  37 NW7       29.70R
WORLAND        MOCLDY    63  43  48 NW8       29.68R
SHERIDAN       FAIR      62  45  53 SE18G29   29.67R
BUFFALO        FAIR      57  46  66 S15       29.76R
GILLETTE       FAIR      57  47  69 SE23G32   29.77R
HULETT         FAIR      57  46  67 S6        29.80R
NEWCASTLE      CLOUDY    55  46  71 SE14G22   29.84R

$$
WYZ014>020-022>026-101>103-060500-
CENTRAL WYOMING

CITY           SKY/WX    TMP DP  RH WIND       PRES   REMARKS
BIG PINEY      CLOUDY    50  40  68 SE6       29.88R
PINEDALE       CLOUDY    46  41  81 E6        29.89R
DUBOIS         CLOUDY    45  37  76 SE5       29.88S
LANDER         CLOUDY    59  40  49 SE21G26   29.74R
RIVERTON       CLOUDY    59  42  53 NW15      29.75S
CASPER         FAIR      49  43  80 N6        29.75R
DOUGLAS        FAIR      51  48  89 SE17      29.80S

$$
WYZ021-027>030-104>119-060500-
SOUTHERN WYOMING

CITY           SKY/WX    TMP DP  RH WIND       PRES   REMARKS
EVANSTON       MOCLDY    45  41  86 W3        29.90R
KEMMERER       MOCLDY    45  41  87 W6        29.89S
FORT BRIDGER   CLOUDY    46  46 100 W6        29.91R
ROCK SPRINGS   MOCLDY    48  41  76 W7        29.85R
DIXON          CLOUDY    51  45  78 SW6       29.85R
RAWLINS        FAIR      50  41  71 NE9       29.80R
SARATOGA       FAIR      50  41  71 S10       29.82S
LARAMIE        FAIR      43  40  89 SE15      29.84S
CHEYENNE       LGT RAIN  48  46  93 E3        29.83F
TORRINGTON     LGT RAIN  53  51  93 SE13      29.81F
PINE BLUFFS    DRIZZLE   50  48  93 E10G16    29.82S

$$


USA.gov is the U.S. government's official web portal to all federal, state and local government web resources and services.